Regional Weather Roundup
Issued by NWS

Home | Current Version | Previous Version | Graphics & Text | Print | Product List | Glossary Off
Versions: 1 2 3 4 5 6 7 8 9 10 11 12 13 14 15 16 17 18 19 20 21 22 23 24 25 26 27 28 29 30 31 32 33 34 35 36 37 38 39 40 41 42 43 44 45 46 47 48 49 50

000
ASUS43 KMKX 030000
RWRWI

WISCONSIN REGIONAL WEATHER ROUNDUP
NATIONAL WEATHER SERVICE MILWAUKEE/SULLIVAN WI
700 PM CDT MON MAY 02 2016

NOTE: "FAIR" INDICATES FEW OR NO CLOUDS BELOW 12,000 FEET WITH NO
SIGNIFICANT WEATHER AND/OR OBSTRUCTIONS TO VISIBILITY.

WIZ001-002-006>008-014>016-023>028-030100-
NORTHWEST WISCONSIN

CITY           SKY/WX    TMP DP  RH WIND       PRES   REMARKS
SUPERIOR ARPT  SUNNY     50  36  59 N7        29.98F
ASHLAND        SUNNY     63  31  30 CALM      29.99F
6HR MIN TEMP:  61; 6HR MAX TEMP:  66;

HAYWARD        CLOUDY    64  29  26 NE5       29.98F
6HR MIN TEMP:  62; 6HR MAX TEMP:  66;

SIREN          PTSUNNY   64  29  27 CALM      30.00S
CUMBERLAND     SUNNY     59  32  36 SW6       29.99F
RICE LAKE      SUNNY     64  29  26 SW6       30.01S
CHETEK         CLOUDY    64  34  31 W6        30.00S
LADYSMITH      SUNNY     63  33  32 S5        30.01S
6HR MIN TEMP:  59; 6HR MAX TEMP:  65;

EAU CLAIRE     NOT AVBL
MENOMONIE      SUNNY     65  32  29 W5        30.00S
NEW RICHMOND   SUNNY     64  31  28 SW5       30.00F
OSCEOLA        SUNNY     65  31  27 W3        30.02S
$$

WIZ003>005-009-010-017-018-030100-
NORTH CENTRAL WISCONSIN

CITY           SKY/WX    TMP DP  RH WIND       PRES   REMARKS
MANITOWISH WTR MOSUNNY   60  32  34 NW6       29.99S
ARBOR VITAE    PTSUNNY   59  30  32 NW3       29.99F
WOODRUFF       PTSUNNY   59  30  32 NW3       29.99F
RHINELANDER    PTSUNNY   61  29  29 W7        30.00S
6HR MIN TEMP:  57; 6HR MAX TEMP:  63;

EAGLE RIVER    PTSUNNY   61  26  25 W3        29.98F
LAND O LAKES   MOSUNNY   60  28  28 N6        30.00S
PHILLIPS       CLOUDY    60  31  33 CALM      29.99S
6HR MIN TEMP:  58; 6HR MAX TEMP:  63;

TOMAHAWK       PTSUNNY   60  32  35 CALM      30.00F
MEDFORD        MOSUNNY   59  36  41 SW5       30.00S
MERRILL        MOSUNNY   59  35  40 SW5       30.00S
$$

WIZ029-030-035-036-043>047-030100-
CENTRAL WISCONSIN

CITY           SKY/WX    TMP DP  RH WIND       PRES   REMARKS
WAUSAU         PTSUNNY   62  33  33 NW7       29.97F
6HR MIN TEMP:  62; 6HR MAX TEMP:  66;

MOSINEE        NOT AVBL
MARSHFIELD     SUNNY     62  32  32 NW3       29.99F
6HR MIN TEMP:  59; 6HR MAX TEMP:  66;

STEVENS POINT  CLOUDY    61  31  32 CALM      30.00F
WAUPACA        MOCLDY    64  28  25 CALM      29.99S
6HR MIN TEMP:  64; 6HR MAX TEMP:  67;

WAUTOMA        CLOUDY    62  31  31 SE5       30.00S
6HR MIN TEMP:  61; 6HR MAX TEMP:  66;

WISC RAPIDS    SUNNY     63  30  28 N6        30.01F
6HR MIN TEMP:  61; 6HR MAX TEMP:  67;

CAMP DOUGLAS   NOT AVBL
$$

WIZ011>013-019>022-031-037>040-048>050-030100-
NORTHEAST WISCONSIN

CITY           SKY/WX    TMP DP  RH WIND       PRES   REMARKS
ANTIGO         PTCLDY    57  34  40 CALM      29.99F
SHAWANO        CLEAR     62  30  29 CALM      29.98F
6HR MIN TEMP:  62; 6HR MAX TEMP:  68;

OCONTO         CLEAR     59  35  40 SE8       30.00S
STURGEON BAY   CLEAR     55  30  38 SE7       30.03F
6HR MIN TEMP:  55; 6HR MAX TEMP:  61;

GREEN BAY      CLEAR     60  35  39 SE10      30.00F
6HR MIN TEMP:  60; 6HR MAX TEMP:  65; 6HR PCP: TRACE;

MANITOWOC      NOT AVBL
APPLETON       PTCLDY    61  28  29 SE8       29.98F
CLINTONVILLE   CLOUDY    63  30  29 CALM      29.98F
OSHKOSH        CLEAR     59  33  37 SE8       30.00F
6HR MIN TEMP:  59; 6HR MAX TEMP:  63;

$$

WIZ032>034-041-042-053>061-030100-
SOUTHWEST WISCONSIN

CITY           SKY/WX    TMP DP  RH WIND       PRES   REMARKS
LA CROSSE      CLOUDY    64  33  31 SW5       30.00F
6HR MIN TEMP:  63; 6HR MAX TEMP:  68;

SPARTA         CLOUDY    62  33  33 CALM      30.02S
VIROQUA        CLOUDY    59  37  42 CALM      30.02S
6HR MIN TEMP:  58; 6HR MAX TEMP:  64;

BOSCOBEL       PTSUNNY   63  33  32 CALM      30.02S
6HR MIN TEMP:  63; 6HR MAX TEMP:  67;

PRAIRIE DU CHI CLOUDY    61  34  35 CALM      30.02S
PLATTEVILLE    PTSUNNY   60  35  38 CALM      30.02S
$$

WIZ056-057-062-063-064-067-068-030100-
SOUTH CENTRAL WISCONSIN

CITY           SKY/WX    TMP DP  RH WIND       PRES   REMARKS
REEDSBURG      CLOUDY    60  33  35 CALM      30.00S
BARABOO/DELLS  CLOUDY    61  29  29 CALM      30.00S
LONE ROCK      NOT AVBL
MINERAL POINT  CLOUDY    61  30  31 CALM      30.02S
MADISON        PTCLDY    58  35  42 NE5       30.00S
6HR MIN TEMP:  58; 6HR MAX TEMP:  64;

MIDDLETON      PTCLDY    62  34  35 SE6       30.01S
WATERTOWN      CLOUDY    58  38  46 E6        30.01S
MONROE         CLOUDY    57  36  44 CALM      30.01S
JANESVILLE     MOCLDY    59  39  47 E5        30.01S
$$

WIZ051-052-058>065-066-070>072-030100-
SOUTHEAST WISCONSIN

CITY           SKY/WX    TMP DP  RH WIND       PRES   REMARKS
MILWAUKEE      PTCLDY    50  33  52 NE6       30.03S
6HR MIN TEMP:  50; 6HR MAX TEMP:  57;

WAUKESHA       PTCLDY    55  30  38 E14       30.02S
MILWAUKEE/TIMM NOT AVBL
RACINE         CLEAR     51  33  50 NE5       30.04S
6HR MIN TEMP:  51; 6HR MAX TEMP:  58;

BURLINGTON     CLEAR     56  32  40 E9        30.02R
6HR MIN TEMP:  56; 6HR MAX TEMP:  60;

KENOSHA        CLEAR     51  34  52 E8        30.03R
6HR MIN TEMP:  51; 6HR MAX TEMP:  60;

FOND DU LAC    CLEAR     60  35  39 SE5       30.00F
6HR MIN TEMP:  60; 6HR MAX TEMP:  63;

SHEBOYGAN      CLEAR     55  34  45 E6        30.02S
6HR MIN TEMP:  55; 6HR MAX TEMP:  60;

WEST BEND      CLEAR     59  30  33 NE7       30.01F
JUNEAU         PTCLDY    58  35  42 CALM      30.02S
$$

LSZ147-162-030100-
LAKE SUPERIOR

STATION/POSITION TIME  TEMP    WIND        PRES    WAVE
                       AIR SEA DIR/SP/G            HT/PER
                 (UTC) (F)     (DEG/KT/KT) (MB)    (FT/S)
W MID LAKE BUOY  2250   40 37  130/  4/  4 1017.2F   0
DEVILS ISLAND    2300   45     110/  2/  3 1016.5F
SAXON HARBOR     2340   52      CALM  /  3 1015.6F
$$

LMZ867-665-643>646-030100-
LAKE MICHIGAN

STATION/POSITION TIME  TEMP    WIND        PRES    WAVE
                       AIR SEA DIR/SP/G            HT/PER
                 (UTC) (F)     (DEG/KT/KT) (MB)    (FT/S)
CHAMBERS ISLAND  2300   60     150/  5/  9 1016.3S
N MID LAKE BUOY  2250   46 39  210/  2/  4 1016.6F   0
NORTHPORT PIER   2300   55     160/  4/  7 1016.3F
KEWAUNEE LAKESHO 2300   51      90/  1/  4 1015.9F
SHEBOYGAN LAKESH 2300   48      20/  7/  7 1017.3F
PORT WASHINGTON  2300   52      50/  9/ 12 1017.3S
S MID LAKE BUOY  2250   42 42  340/  4/  4 1016.8F   1/ 4
KENOSHA   LAKESH 2300   46      10/  4/  5 1016.6F
$$

TC  - TEMPERATURE IN CELSIUS
VSB - VISIBILITY IN STATUTE MILES
WCI - WIND CHILL INDEX
HX  - HEAT INDEX





USA.gov is the U.S. government's official web portal to all federal, state and local government web resources and services.